GOES 10 1 24786U 97019A 10243.68894121 -.00000029 00000-0 10000-3 0 5804 2 24786 4.5994 67.8409 0008057 48.2128 312.0877 0.99072802 48893 SARSAT 7 (NOAA 15) 1 25338U 98030A 10244.41611258 .00000170 00000-0 91587-4 0 5044 2 25338 98.6262 229.9999 0010145 208.3182 151.7462 14.24852556639602 GOES 11 1 26352U 00022A 10244.24205824 .00000088 00000-0 10000-3 0 9800 2 26352 0.3049 261.1713 0004129 281.2610 109.7156 1.00265917 37823 SARSAT 8 (NOAA 16) 1 26536U 00055A 10244.37084878 -.00000079 00000-0 -17563-4 0 9824 2 26536 99.1694 263.6316 0011286 121.3185 238.9081 14.12574416512585 GPS BIIR-07 (DASS) 1 26690U 01004A 10243.16872523 .00000038 00000-0 10000-3 0 8187 2 26690 53.6392 261.5177 0119616 228.7884 130.2135 2.00558087 70259 GOES 12 1 26871U 01031A 10243.08184043 -.00000284 00000-0 10000-3 0 7286 2 26871 0.7309 81.5150 0000846 106.7936 120.1996 1.00285804 33412 SARSAT 9 (NOAA 17) 1 27453U 02032A 10244.36452687 .00000170 00000-0 91795-4 0 9757 2 27453 98.4234 291.7150 0010736 275.6218 84.3729 14.24186483425540 MSG-1 1 27509U 02040B 10245.13746287 .00000058 00000-0 10000-3 0 5587 2 27509 0.8350 49.5807 0000578 4.9815 345.3206 1.00275451 29437 GPS BIIR-08 (DASS) 1 27663U 03005A 10242.52893859 .00000005 00000-0 10000-3 0 2172 2 27663 55.7569 82.0092 0061415 349.9525 9.9952 2.00567883 55595 INSAT 3A 1 27714U 03013A 10242.80442414 -.00000257 00000-0 10000-3 0 2637 2 27714 0.0196 236.6134 0004308 247.4247 237.9284 1.00271783 27114 GPS BIIR-11 (DASS) 1 28190U 04009A 10244.16458513 .00000000 00000-0 10000-3 0 6730 2 28190 54.8925 144.8438 0066975 353.5049 6.4614 2.00551609 47290 GPS BIIR-12 (DASS) 1 28361U 04023A 10243.45146657 -.00000062 00000-0 10000-3 0 4928 2 28361 55.4111 320.8407 0070080 178.7177 181.3669 2.00565888 45360 GPS BIIR-13 (DASS) 1 28474U 04045A 10243.94248670 .00000046 00000-0 10000-3 0 3716 2 28474 53.8408 199.3691 0095466 180.4443 179.5276 2.00569045 42731 SARSAT 10 (NOAA 18) 1 28654U 05018A 10244.36767459 -.00000202 00000-0 -86687-4 0 4638 2 28654 98.9548 190.4306 0013851 195.2398 164.8362 14.11382749272188 GPS IIR-14M (DASS) 1 28874U 05038A 10244.79121495 -.00000002 00000-0 10000-3 0 6426 2 28874 55.0311 141.6771 0054957 219.5168 140.1536 2.00566472 36174 MSG-2 1 28912U 05049B 10245.14083411 -.00000008 00000-0 10000-3 0 7311 2 28912 0.4307 297.6231 0001246 233.7864 220.5115 1.00272330 17286 GOES 13 1 29155U 06018A 10244.20648889 -.00000252 00000-0 10000-3 0 2507 2 29155 0.0609 46.1748 0003984 39.9362 253.9279 1.00270275 15675 SARSAT 11 (METOP-A) 1 29499U 06044A 10245.00670008 -.00000085 00000-0 -19013-4 0 2020 2 29499 98.6646 303.1531 0001400 95.6633 264.4722 14.21506805200783 GPS IIR-16M (DASS) 1 29601U 06052A 10243.85395672 .00000012 00000-0 10000-3 0 130 2 29601 55.6853 80.9503 0033141 345.2908 14.6168 2.00568721 27769 GPS IIR-17M (DASS) 1 32260U 07047A 10243.16364390 -.00000062 00000-0 00000+0 0 7427 2 32260 54.5965 319.3414 0025634 345.6081 14.3821 2.00549248 21142 GPS IIR-18M (DASS) 1 32384U 07062A 10242.98524225 .00000006 00000-0 10000-3 0 7618 2 32384 55.0455 142.2262 0031269 286.3371 73.3871 2.00561595 19862 SARSAT 12 (NOAA 19) 1 33591U 09005A 10244.37235457 .00000003 00000-0 25781-4 0 6595 2 33591 98.7917 184.8869 0015124 74.2812 286.0020 14.11080144 80656 COSPAS C11 (STERKH 1) 1 35636U 09039B 10245.17392880 .00000138 00000-0 10000-3 0 7000 2 35636 82.9512 77.5220 0019518 184.9940 175.1023 13.89456607 56654 COSPAS C12 (STERKH 2) 1 35866U 09049B 10245.14227156 .00000178 00000-0 10000-3 0 6425 2 35866 98.7533 298.6637 0004213 134.5733 225.5768 14.22335469 49672